Flag for Canada Weather past 2 weeks in Richmond Hill, Ontario, Canada

Now
63 °F

Partly cloudy.


Feels Like: 63 °F
Forecast: 62 / 83 °F
Wind: 3 mph from East

Location: Toronto Buttonville

Current Time: Aug 30, 2014 at 1:22:29 AM

Latest Report: Aug 30, 2014 at 1:00 AM


Visibility: 15 mi

Pressure: 30.11 "Hg

Humidity: 83%

Dew point: 57 °F

Location of Richmond HillLocation

Historic Weather in Richmond Hill — Graph

°F

Richmond Hill temperature yesterday

Maximum temperature yesterday: 72 °F (at 5:00 PM)
Minimum temperature yesterday: 52 °F (at 4:00 AM)
Average temperature yesterday: 61 °F

Past Weeks' High & Low Weather Summary

 TemperatureHumidityPressure
High88 °F (Aug 26, 6:00 PM)100% (Aug 17, 6:00 AM)30.21 "Hg (Aug 17, 6:00 AM)
Low50 °F (Aug 19, 4:00 AM)38% (Aug 15, 5:00 PM)29.78 "Hg (Aug 16, 4:00 PM)
Average66 °F76%30.01 "Hg
* Reported Midnight between Aug 14 and Aug 15 — Midnight between Aug 29 and Aug 30, Richmond Hill, Weather by CustomWeather, © 2014

Note: Actual official high and low records may vary slightly from our data, if they occured in-between our weather recording intervals... More about our weather records

Advertising

Richmond Hill weather history for previous 24 hours

 ConditionsComfort  
Time TempWeatherWind HumidityBarometerVisibility
12:00 AM
Aug 30
63 °FPassing clouds.5 mph83%30.11 "Hg15 mi
11:00 PM
Aug 29
63 °FPassing clouds.5 mph83%30.11 "Hg15 mi
10:00 PM64 °FPassing clouds.7 mph73%30.12 "Hg15 mi
9:00 PM64 °FPassing clouds.8 mph73%30.12 "Hg15 mi
8:00 PM64 °FBroken clouds.8 mph64%30.12 "Hg15 mi
7:00 PM66 °FPartly sunny.9 mph64%30.12 "Hg15 mi
6:00 PM70 °FPartly sunny.8 mph57%30.13 "Hg15 mi
5:00 PM72 °FScattered clouds.5 mph53%30.14 "Hg15 mi
3:00 PM70 °FPartly sunny.8 mph53%30.16 "Hg15 mi
2:00 PM70 °FPartly sunny.9 mph57%30.18 "Hg15 mi
1:00 PM68 °FBroken clouds.10 mph60%30.19 "Hg15 mi
12:00 PM68 °FPartly sunny.8 mph60%30.21 "Hg15 mi
11:00 AM66 °FPartly sunny.10 mph68%30.20 "Hg15 mi
10:00 AM61 °FPartly sunny.3 mph83%30.21 "Hg15 mi
9:00 AM59 °FPartly sunny.2 mph82%30.21 "Hg15 mi
8:00 AM55 °FPartly sunny.2 mph88%30.21 "Hg15 mi
7:00 AM52 °FPassing clouds.No wind94%30.19 "Hg15 mi
6:00 AM52 °FPassing clouds.No wind94%30.17 "Hg15 mi
5:00 AM52 °FClear.No wind94%30.16 "Hg15 mi
4:00 AM52 °FPassing clouds.No wind94%30.17 "Hg15 mi
3:00 AM54 °FPassing clouds.2 mph88%30.17 "Hg15 mi
2:00 AM55 °FPassing clouds.2 mph82%30.16 "Hg15 mi
1:00 AM57 °FPassing clouds.7 mph77%30.17 "Hg15 mi
Weather by CustomWeather, © 2014

See weather overviewHow to use our weather pages